[[{"header":{"parameterUnit":"m.s-1","parameterCategory":1,"la1":30.2991,"la2":30.254,"lo1":-89.0895,"lo2":-89.0444,"dy":0.0017,"dx":0.0017,"nx":28,"ny":28,"refTime":"2026-02-25T09:00:00:Z","depth":0,"parameterNumber":2,"parameterNumberName":"U-component_of_WINDS"},"data":[0,0,0,0,0,0,0,0,0,0,0,0,0,0,0,0,0,0,0,0,0,0,0,0,0,0,0,0,0,0,0,0,0,0,0,0,0,0,0,0,0,0,0,0,0,0,0,0,0,0,0,0,0,0,0,0,0,0,0.3465,0.3465,0,0.3462,0.3462,0.3462,0.3479,0.348,0.348,0.3481,0.3477,0.3477,0.3476,0,0,0,0,0,0,0,0,0,0,0,0,0,0.3485,0.3484,0.3465,0.3465,0.3465,0.3462,0.3462,0.3462,0.3479,0.348,0.348,0.3481,0.3478,0.3477,0.3476,0,0,0,0,0,0,0,0,0,0,0,0,0,0.3478,0.3484,0.3465,0.3473,0.3474,0.3462,0.3462,0.3462,0.3479,0.348,0.3481,0.3481,0.3478,0.3477,0.3476,0.3456,0,0,0.3474,0.3473,0,0,0,0,0,0,0,0,0.3479,0.3478,0.3472,0.3473,0.3473,0.3472,0.3468,0.346,0.3479,0.3477,0.3481,0.3482,0.3475,0.3474,0.3472,0.3456,0.3456,0.3473,0.3473,0.3473,0.3472,0,0,0,0,0,0,0,0.3479,0.3478,0.3464,0.3472,0.3473,0.3477,0.3477,0.3466,0.3472,0.3477,0.3479,0.3478,0.3475,0.3473,0.3472,0.3456,0.3474,0.3473,0.3472,0.3472,0.3423,0.3422,0,0,0,0,0,0,0.3479,0.3478,0.3464,0.3464,0.3478,0.3476,0.3476,0.3472,0.3472,0.3473,0.3477,0.3479,0.3474,0.3473,0.3472,0.3449,0.3473,0.3472,0.3471,0.3424,0.3423,0.3422,0,0,0,0,0,0,0.3479,0.3477,0.3464,0.3471,0.347,0.3475,0.347,0.3471,0.3469,0.3472,0.3473,0.3474,0.3474,0.3473,0.346,0.3449,0.3471,0.3471,0.3425,0.3424,0.3422,0.3403,0,0,0,0,0,0,0.3479,0.3477,0.347,0.3471,0.3469,0.3452,0.3469,0.347,0.3467,0.3469,0.3469,0.347,0.3475,0.3461,0.3459,0.3449,0.347,0.3426,0.3424,0.3423,0.3405,0.3401,0.3398,0,0,0,0,0,0.348,0.3464,0.3469,0.3468,0.346,0.3452,0.3451,0.3457,0.3466,0.3459,0.3461,0.347,0.345,0.346,0.3458,0.3447,0.3427,0.3425,0.3423,0.3406,0.3402,0.3398,0,0,0,0,0,0,0.3462,0.3465,0.347,0.3455,0.3453,0.3454,0.3446,0.3452,0.3448,0.345,0.3458,0.3458,0.3443,0.3443,0.3453,0.3427,0.344,0.3438,0.3428,0.3424,0.3421,0.3422,0.3469,0,0,0,0,0,0.3456,0.3449,0.3451,0.3437,0.3436,0.3441,0.3437,0.3442,0.3441,0.344,0.3441,0.3439,0.3432,0.3428,0.3422,0.3404,0.3405,0.3396,0.3392,0.339,0.3388,0.3379,0.3375,0.3416,0.3416,0.3416,0,0,0.3444,0.3445,0.344,0.3434,0.3433,0.3425,0.344,0.3431,0.3426,0.3438,0.3426,0.3427,0.3425,0.3409,0.3403,0.3409,0.3377,0.3388,0.3385,0.3385,0.3377,0.3373,0.3369,0.3415,0.3415,0.3415,0,0,0.3418,0.3418,0.3406,0.3405,0.3403,0.3407,0.3404,0.3404,0.3405,0.3393,0.3403,0.3395,0.3384,0.3383,0.338,0.3353,0.3361,0.3351,0.3335,0.3326,0.3323,0.332,0.3311,0.3307,0.3349,0.3349,0.3349,0,0.3404,0.3393,0.3399,0.339,0.3387,0.3398,0.3386,0.3384,0.3381,0.3379,0.3386,0.3372,0.3371,0.3356,0.3349,0.3346,0.3344,0.3351,0.3323,0.332,0.3317,0.3309,0.3305,0.3347,0.3348,0.3348,0.3348,0,0.3375,0.3367,0.3357,0.3354,0.335,0.3339,0.3344,0.3339,0.3344,0.3346,0.3334,0.3333,0.3328,0.3324,0.3329,0.3309,0.3313,0.3321,0.3335,0.3312,0.3304,0.3301,0.3346,0.3346,0.3347,0.3347,0,0,0.3339,0.3339,0.3335,0.3334,0.3333,0.3327,0.3316,0.3311,0.3307,0.3303,0.3295,0.3285,0.3292,0.329,0.3294,0.3286,0.3265,0.3295,0.3295,0.329,0.3244,0.3239,0.3235,0.327,0.3269,0.3269,0.3244,0,0.3314,0.3297,0.3303,0.3285,0.3278,0.3288,0.3279,0.3277,0.3279,0.3273,0.3274,0.3267,0.3277,0.3275,0.3268,0.3269,0.3256,0.3271,0.3263,0.3262,0.3264,0.3231,0.3225,0.3202,0.3241,0.3241,0.324,0,0.3284,0.328,0.3262,0.3262,0.3259,0.3251,0.3247,0.3241,0.3238,0.324,0.3237,0.3243,0.3232,0.3244,0.323,0.324,0.3237,0.3237,0.3236,0.3237,0.3251,0.3231,0.3195,0.3192,0.3235,0.3236,0.3236,0,0.3261,0.3251,0.3239,0.3237,0.3237,0.3231,0.323,0.3229,0.3225,0.3221,0.3218,0.3213,0.321,0.3205,0.3209,0.3218,0.3195,0.3207,0.3196,0.3196,0.3192,0.3192,0.3156,0.3188,0.3188,0.3188,0.3188,0,0.3234,0.3223,0.3228,0.3221,0.3209,0.3215,0.3202,0.3202,0.3201,0.3194,0.3201,0.3194,0.32,0.3193,0.3196,0.3184,0.3183,0.3184,0.3185,0.3184,0.3184,0.3183,0.3185,0.3187,0.3187,0.3187,0.3187,0,0.3206,0.321,0.3198,0.3198,0.3197,0.3188,0.3189,0.3182,0.3183,0.3174,0.3172,0.3175,0.3168,0.3171,0.3163,0.3165,0.315,0.3153,0.3151,0.3152,0.3141,0.3143,0.3104,0.3099,0.3133,0.3133,0.3132,0,0.319,0.3181,0.3181,0.3177,0.3176,0.3169,0.3165,0.317,0.3166,0.3162,0.3156,0.3149,0.3144,0.3132,0.3133,0.3127,0.313,0.3117,0.3129,0.3129,0.3131,0.3132,0.3131,0.3115,0.3114,0.3114,0.3114,0,0.316,0.3162,0.3156,0.3151,0.3147,0.3143,0.314,0.3136,0.314,0.3135,0.3128,0.3124,0.3116,0.3109,0.3104,0.3103,0.3109,0.311,0.3107,0.3106,0.3106,0.3107,0.3146,0.3111,0.3111,0.3111,0.3112,0.3112,0.3138,0.3131,0.313,0.3123,0.3121,0.3118,0.3112,0.3112,0.3107,0.3101,0.3103,0.3095,0.3093,0.3086,0.3084,0.3077,0.3083,0.3079,0.3078,0.3077,0.3076,0.3106,0.3076,0.3076,0.3076,0.3077,0.3077,0,0.3109,0.3108,0.3102,0.3098,0.3093,0.3099,0.3095,0.3091,0.3083,0.3081,0.3075,0.3067,0.306,0.306,0.3054,0.3049,0.3052,0.3047,0.3048,0.3048,0.3071,0.3075,0.3045,0.3045,0.3045,0.3045,0.3045,0.3045,0.3094,0.3083,0.3084,0.3072,0.3071,0.3064,0.3061,0.3058,0.3056,0.3046,0.3041,0.3041,0.3039,0.3033,0.3027,0.3027,0.3025,0.302,0.3021,0.3043,0.3046,0.3049,0.3053,0.3019,0.3019,0.2999,0.2999,0.2999]},{"header":{"parameterUnit":"m.s-1","parameterCategory":1,"la1":30.2991,"la2":30.254,"lo1":-89.0895,"lo2":-89.0444,"dy":0.0017,"dx":0.0017,"nx":28,"ny":28,"refTime":"2026-02-25T09:00:00:Z","depth":0,"parameterNumber":3,"parameterNumberName":"V-component_of_WINDS"},"data":[0,0,0,0,0,0,0,0,0,0,0,0,0,0,0,0,0,0,0,0,0,0,0,0,0,0,0,0,0,0,0,0,0,0,0,0,0,0,0,0,0,0,0,0,0,0,0,0,0,0,0,0,0,0,0,0,0,0,4.2925,4.2924,0,4.2855,4.2854,4.2853,4.284,4.2841,4.2842,4.2842,4.2763,4.2761,4.2758,0,0,0,0,0,0,0,0,0,0,0,0,0,4.3043,4.3041,4.2925,4.2924,4.2923,4.2855,4.2854,4.2853,4.284,4.2841,4.2842,4.2843,4.2764,4.2761,4.2758,0,0,0,0,0,0,0,0,0,0,0,0,0,4.2984,4.304,4.2925,4.2909,4.2907,4.2855,4.2854,4.2852,4.284,4.2841,4.2842,4.2843,4.2765,4.2761,4.2757,4.2714,0,0,4.2745,4.2743,0,0,0,0,0,0,0,0,4.2987,4.298,4.2912,4.291,4.2907,4.2857,4.2866,4.2806,4.284,4.2865,4.2842,4.2843,4.2793,4.2787,4.2772,4.2711,4.2707,4.2745,4.2742,4.2741,4.2739,0,0,0,0,0,0,0,4.2991,4.2982,4.2897,4.2911,4.2908,4.2903,4.2896,4.2855,4.2825,4.2863,4.2862,4.2854,4.2792,4.2776,4.277,4.2706,4.2745,4.2741,4.2739,4.2737,4.2608,4.2607,0,0,0,0,0,0,4.2999,4.2986,4.2899,4.2895,4.2951,4.2901,4.2892,4.2872,4.2825,4.2819,4.2854,4.2854,4.2782,4.2774,4.2767,4.2715,4.2741,4.2737,4.2735,4.2609,4.2608,4.2607,0,0,0,0,0,0,4.3002,4.2992,4.2902,4.294,4.2928,4.2898,4.2875,4.287,4.2854,4.2818,4.2812,4.2843,4.2782,4.2772,4.2728,4.2712,4.2735,4.2731,4.261,4.2609,4.2607,4.2609,0,0,0,0,0,0,4.3005,4.2993,4.2977,4.294,4.2926,4.2866,4.2874,4.2868,4.2848,4.2848,4.2806,4.28,4.2782,4.2735,4.2725,4.2707,4.2728,4.2612,4.261,4.2608,4.2611,4.2608,4.2606,0,0,0,0,0,4.301,4.2978,4.2976,4.2966,4.2907,4.2865,4.2857,4.2839,4.2847,4.283,4.2808,4.2801,4.2716,4.273,4.2719,4.2699,4.2613,4.261,4.2608,4.2612,4.2609,4.2606,0,0,0,0,0,0,4.3011,4.2973,4.297,4.2927,4.29,4.2863,4.2841,4.2836,4.2805,4.2805,4.2783,4.2773,4.2731,4.2711,4.2728,4.2656,4.2664,4.266,4.2671,4.2668,4.2666,4.2671,4.2725,0,0,0,0,0,4.3007,4.2978,4.2946,4.291,4.2897,4.2872,4.2853,4.2842,4.2812,4.28,4.2774,4.2743,4.271,4.2688,4.2654,4.2608,4.2599,4.2589,4.2587,4.2585,4.2581,4.2556,4.2552,4.2599,4.2599,4.2599,0,0,4.2996,4.2972,4.2955,4.291,4.2888,4.2858,4.2862,4.2829,4.2806,4.2794,4.2752,4.2732,4.2696,4.2652,4.263,4.2633,4.2566,4.2582,4.2581,4.2578,4.2554,4.2549,4.2545,4.2598,4.2598,4.2598,0,0,4.2962,4.2942,4.2911,4.2889,4.2857,4.2841,4.2834,4.2799,4.2786,4.2744,4.2735,4.2706,4.2648,4.2624,4.2604,4.2564,4.2558,4.2554,4.2541,4.2517,4.2514,4.251,4.2497,4.2492,4.255,4.255,4.255,0,4.2953,4.2909,4.2894,4.2863,4.2844,4.2835,4.2803,4.2782,4.2739,4.2726,4.273,4.2659,4.2634,4.2585,4.2576,4.2559,4.255,4.2558,4.2516,4.2512,4.2509,4.2495,4.249,4.255,4.255,4.255,4.255,0,4.29,4.2869,4.2848,4.2811,4.2789,4.2757,4.2737,4.2716,4.2708,4.2691,4.2649,4.2619,4.2581,4.2568,4.2558,4.2517,4.252,4.2521,4.2528,4.2504,4.2491,4.2486,4.255,4.255,4.255,4.255,0,0,4.2862,4.282,4.2813,4.2797,4.2762,4.2737,4.2705,4.267,4.2653,4.2625,4.2597,4.255,4.2551,4.2528,4.2516,4.2495,4.2467,4.2498,4.2497,4.2494,4.2421,4.2421,4.2415,4.2463,4.2462,4.2461,4.2424,0,4.2824,4.277,4.2757,4.271,4.2682,4.2675,4.2647,4.2622,4.2606,4.2578,4.2559,4.2527,4.2531,4.2517,4.2496,4.2475,4.2452,4.2477,4.2436,4.2434,4.2445,4.2408,4.2407,4.2374,4.2419,4.2418,4.2417,0,4.2772,4.2747,4.2698,4.2669,4.2656,4.2632,4.26,4.2575,4.2546,4.2536,4.2513,4.2503,4.2469,4.2479,4.2432,4.2449,4.2432,4.2419,4.2417,4.2412,4.2424,4.2402,4.2362,4.2357,4.2409,4.241,4.241,0,4.2751,4.2703,4.2669,4.2655,4.262,4.2603,4.2587,4.256,4.2541,4.2513,4.25,4.2467,4.2449,4.2423,4.2405,4.2414,4.2359,4.2368,4.2349,4.2349,4.2336,4.2337,4.2293,4.2326,4.2326,4.2326,4.2326,0,4.271,4.268,4.2659,4.2637,4.2604,4.2589,4.2556,4.254,4.2516,4.249,4.2481,4.2456,4.2434,4.2406,4.2391,4.2355,4.2346,4.2336,4.2333,4.2337,4.2338,4.2324,4.2326,4.2324,4.2325,4.2325,4.2325,0,4.2679,4.2664,4.2626,4.2598,4.259,4.2566,4.2541,4.2519,4.2505,4.2472,4.2463,4.2439,4.2406,4.2386,4.2343,4.2334,4.2293,4.229,4.2304,4.2302,4.2284,4.2286,4.223,4.2222,4.2259,4.2259,4.2259,0,4.2654,4.2632,4.2602,4.2586,4.2571,4.2544,4.2526,4.2511,4.2491,4.2459,4.2441,4.2409,4.2382,4.233,4.2307,4.2275,4.2271,4.2253,4.2266,4.2272,4.2271,4.2273,4.227,4.2251,4.2251,4.225,4.225,0,4.2611,4.2606,4.2581,4.2554,4.2533,4.251,4.2487,4.2473,4.2454,4.2433,4.2401,4.2381,4.234,4.2307,4.2274,4.2256,4.2249,4.2247,4.2241,4.2245,4.2254,4.2249,4.2298,4.2248,4.2248,4.2248,4.2248,4.2248,4.2582,4.2563,4.254,4.2513,4.2495,4.2475,4.2454,4.2438,4.2412,4.2379,4.2371,4.2338,4.2311,4.2266,4.2248,4.2221,4.2223,4.2214,4.2212,4.221,4.221,4.2259,4.2214,4.2214,4.2215,4.2215,4.2215,0,4.2539,4.2525,4.2501,4.2471,4.245,4.2449,4.2425,4.2406,4.2378,4.2355,4.233,4.2294,4.2263,4.224,4.2208,4.2191,4.2187,4.2183,4.2184,4.218,4.2209,4.2218,4.2187,4.2187,4.2187,4.2187,4.2187,4.2187,4.2514,4.2482,4.2474,4.2433,4.2418,4.2388,4.2374,4.2355,4.2337,4.2298,4.2274,4.226,4.2236,4.2204,4.2175,4.2169,4.2158,4.2154,4.2147,4.2175,4.2178,4.2181,4.2189,4.2152,4.2152,4.212,4.212,4.212]}]]